Home   Weather   Halle   Past weeks

Flag for Germany Past Weather in Halle, Saxony-Anhalt, Germany — Yesterday and Last 2 Weeks

Now
48 °F

Sprinkles. Partly sunny.


Feels Like: 45 °F
Forecast: 34 / 57 °F
Wind: 8 mph from Northwest

Location: Leipzig-Schkeuditz

Current Time: Apr 29, 2017 at 1:40:19 pm

Latest Report: Apr 29, 2017 at 1:20 pm


Visibility: N/A

Pressure: 30.04 "Hg

Humidity: 62%

Dew Point: 36 °F

Location of HalleLocation

Past Weather in Halle — Graph

°F

Halle Temperature Yesterday

Maximum temperature yesterday: 54 °F (at 12:50 pm)
Minimum temperature yesterday: 34 °F (at 5:50 am)
Average temperature yesterday: 45 °F

High & Low Weather Summary for the Past Weeks

 TemperatureHumidityPressure
High59 °F (Apr 24, 4:50 pm)100% (Apr 17, 5:20 am)30.60 "Hg (Apr 17, 5:20 am)
Low28 °F (Apr 20, 3:50 am)37% (Apr 25, 6:50 pm)29.59 "Hg (Apr 25, 5:50 am)
Average44 °F70%30.06 "Hg
* Reported Apr 14 12:20 pm — Apr 29 12:20 pm, Halle, Weather by CustomWeather, © 2017

Note: Actual official high and low records may vary slightly from our data, if they occured in-between our weather recording intervals... More about our weather records

Advertising

Halle Weather History for the Previous 24 Hours

Scroll right to see more
 ConditionsComfort  
Time TempWeatherWind HumidityBarometerVisibility
12:20 pm
Sat, Apr 29
48 °FPartly sunny.3 mph62%30.04 "HgN/A
11:50 am46 °FScattered showers. Partly sunny.6 mph71%30.04 "HgN/A
11:20 am43 °FSprinkles. Partly sunny.10 mph81%30.04 "HgN/A
10:50 am45 °FScattered showers. Partly sunny.7 mph66%30.04 "HgN/A
10:20 am45 °FScattered showers. Partly sunny.8 mph71%30.04 "HgN/A
9:50 am45 °FPartly sunny.7 mph76%30.04 "HgN/A
9:20 am45 °FPartly sunny.6 mph81%30.01 "HgN/A
8:50 am45 °FPartly sunny.8 mph87%30.01 "HgN/A
8:20 am45 °FPartly sunny.7 mph81%30.01 "HgN/A
7:50 am43 °FPartly sunny.7 mph87%30.01 "HgN/A
7:20 am43 °FPartly sunny.6 mph87%30.01 "HgN/A
6:50 am41 °FSprinkles. Partly sunny.8 mph93%30.01 "HgN/A
6:20 am41 °FLight rain. Partly sunny.6 mph87%29.98 "HgN/A
5:50 am41 °FLight rain. Partly sunny.7 mph87%29.98 "HgN/A
5:20 am41 °FPartly cloudy.7 mph81%29.98 "HgN/A
4:50 am39 °FPartly cloudy.7 mph87%29.98 "HgN/A
4:20 am41 °FPartly cloudy.5 mph81%29.98 "HgN/A
3:50 am41 °FClear.3 mph81%29.95 "Hg10 mi
3:20 am41 °FClear.5 mph81%29.95 "Hg10 mi
2:50 am43 °FPartly cloudy.3 mph81%29.95 "HgN/A
2:20 am43 °FClear.5 mph76%29.95 "Hg10 mi
1:50 am43 °FClear.5 mph76%29.95 "Hg10 mi
1:20 am45 °FPassing clouds.6 mph71%29.95 "HgN/A
12:50 am45 °FScattered showers. Passing clouds.5 mph71%29.95 "HgN/A
12:20 am45 °FClear.7 mph71%29.95 "Hg10 mi
11:50 pm
Fri, Apr 28
45 °FClear.6 mph71%29.95 "Hg10 mi
10:50 pm46 °FClear.6 mph66%29.95 "Hg10 mi
10:20 pm46 °FClear.6 mph66%29.95 "Hg10 mi
9:50 pm46 °FPassing clouds.3 mph66%29.92 "HgN/A
9:20 pm45 °FClear.7 mph66%29.92 "Hg10 mi
8:50 pm48 °FClear.3 mph54%29.92 "Hg10 mi
8:20 pm48 °FSunny.5 mph54%29.92 "Hg10 mi
7:50 pm52 °FPassing clouds.8 mph44%29.89 "HgN/A
7:20 pm52 °FPassing clouds.3 mph41%29.89 "HgN/A
6:50 pm54 °FPassing clouds.6 mph38%29.89 "HgN/A
6:20 pm54 °FScattered showers. Passing clouds.3 mph38%29.89 "HgN/A
5:50 pm52 °FScattered showers. Scattered clouds.1 mph41%29.89 "HgN/A
5:20 pm52 °FPassing clouds.3 mph41%29.89 "HgN/A
4:50 pm52 °FScattered clouds.6 mph47%29.89 "HgN/A
4:20 pm52 °FScattered showers. Scattered clouds.9 mph50%29.89 "HgN/A
3:50 pm52 °FSprinkles. Scattered clouds.7 mph44%29.89 "HgN/A
3:20 pm52 °FSprinkles. Scattered clouds.10 mph47%29.89 "HgN/A
2:50 pm52 °FSprinkles. Scattered clouds.5 mph41%29.89 "HgN/A
2:20 pm52 °FSprinkles. Partly sunny.9 mph50%29.89 "HgN/A
1:50 pm52 °FScattered showers. Scattered clouds.8 mph44%29.89 "HgN/A
1:20 pm52 °FPassing clouds.7 mph50%29.86 "HgN/A
Weather by CustomWeather, © 2017

See weather overviewHow to use our weather pages